contact:dominique.lefevre@mio.osupytheas.fr, maurice.libes@osupytheas.fr, didier.mallarino@osupytheas.fr
Project:EMSO http://www.emso-fr.org/EMSO-France
Depth: 2436.0 m
Title:EMSO Ligure Ouest : Data MII capteur MICROCAT
DateTime_Computer,Latitude,Longitude,Temperature,Conductivity,Pressure,DateTime_Instrument
DateTime_Computer,Latitude,Longitude,degC,S m-1,dbar,DateTime_Instrument
2023-06-01T00:02:32Z,42.805,6.029,13.3036,4.60130,2470.707,2023-6-01T02:04:44Z
2023-06-01T00:05:35Z,42.805,6.029,13.3043,4.60130,2470.684,2023-6-01T02:07:47Z
2023-06-01T00:08:38Z,42.805,6.029,13.3040,4.60119,2470.684,2023-6-01T02:10:50Z
2023-06-01T00:11:41Z,42.805,6.029,13.3041,4.60119,2470.693,2023-6-01T02:13:53Z
2023-06-01T00:14:44Z,42.805,6.029,13.3031,4.60139,2470.67,2023-6-01T02:16:57Z
2023-06-01T00:17:47Z,42.805,6.029,13.3042,4.60156,2470.693,2023-6-01T02:20:00Z
2023-06-01T00:20:50Z,42.805,6.029,13.3029,4.60120,2470.684,2023-6-01T02:23:03Z
2023-06-01T00:23:53Z,42.805,6.029,13.3031,4.60134,2470.73,2023-6-01T02:26:06Z
2023-06-01T00:26:56Z,42.805,6.029,13.3028,4.60104,2470.693,2023-6-01T02:29:09Z
2023-06-01T00:29:59Z,42.805,6.029,13.3033,4.60125,2470.707,2023-6-01T02:32:12Z
2023-06-01T00:33:02Z,42.805,6.029,13.3029,4.60111,2470.646,2023-6-01T02:35:15Z
2023-06-01T00:36:06Z,42.805,6.029,13.3040,4.60127,2470.73,2023-6-01T02:38:18Z
2023-06-01T00:39:09Z,42.805,6.029,13.3031,4.60132,2470.707,2023-6-01T02:41:21Z
2023-06-01T00:42:12Z,42.805,6.029,13.3036,4.60117,2470.693,2023-6-01T02:44:24Z
2023-06-01T00:45:15Z,42.805,6.029,13.3026,4.60117,2470.707,2023-6-01T02:47:27Z
2023-06-01T00:48:18Z,42.805,6.029,13.3033,4.60105,2470.693,2023-6-01T02:50:30Z
2023-06-01T00:51:21Z,42.805,6.029,13.3048,4.60131,2470.684,2023-6-01T02:53:33Z
2023-06-01T00:54:24Z,42.805,6.029,13.3029,4.60123,2470.693,2023-6-01T02:56:37Z
2023-06-01T00:57:27Z,42.805,6.029,13.3031,4.60123,2470.693,2023-6-01T02:59:40Z
2023-06-01T01:00:30Z,42.805,6.029,13.3028,4.60112,2470.67,2023-6-01T03:02:43Z
2023-06-01T01:03:33Z,42.805,6.029,13.3026,4.60112,2470.684,2023-6-01T03:05:46Z
2023-06-01T01:06:36Z,42.805,6.029,13.3034,4.60117,2470.693,2023-6-01T03:08:49Z
2023-06-01T01:09:39Z,42.805,6.029,13.3034,4.60097,2470.707,2023-6-01T03:11:52Z
2023-06-01T01:12:42Z,42.805,6.029,13.3034,4.60108,2470.67,2023-6-01T03:14:55Z
2023-06-01T01:15:46Z,42.805,6.029,13.3041,4.60115,2470.693,2023-6-01T03:17:58Z
2023-06-01T01:18:49Z,42.805,6.029,13.3029,4.60126,2470.67,2023-6-01T03:21:01Z
2023-06-01T01:21:52Z,42.805,6.029,13.3031,4.60125,2470.717,2023-6-01T03:24:04Z
2023-06-01T01:24:55Z,42.805,6.029,13.3053,4.60149,2470.67,2023-6-01T03:27:07Z
2023-06-01T01:27:58Z,42.805,6.029,13.3031,4.60150,2470.693,2023-6-01T03:30:10Z
2023-06-01T01:31:01Z,42.805,6.029,13.3028,4.60102,2470.693,2023-6-01T03:33:13Z
2023-06-01T01:34:04Z,42.805,6.029,13.3036,4.60111,2470.717,2023-6-01T03:36:17Z
2023-06-01T01:37:07Z,42.805,6.029,13.3031,4.60097,2470.684,2023-6-01T03:39:20Z
2023-06-01T01:40:10Z,42.805,6.029,13.3036,4.60128,2470.717,2023-6-01T03:42:23Z
2023-06-01T01:43:13Z,42.805,6.029,13.3048,4.60116,2470.693,2023-6-01T03:45:26Z
2023-06-01T01:46:16Z,42.805,6.029,13.3035,4.60119,2470.693,2023-6-01T03:48:29Z
2023-06-01T01:49:19Z,42.805,6.029,13.3037,4.60119,2470.67,2023-6-01T03:51:32Z
2023-06-01T01:52:22Z,42.805,6.029,13.3031,4.60169,2470.717,2023-6-01T03:54:35Z
2023-06-01T01:55:26Z,42.805,6.029,13.3030,4.60123,2470.717,2023-6-01T03:57:38Z
2023-06-01T01:58:29Z,42.805,6.029,13.3034,4.60140,2470.73,2023-6-01T04:00:41Z
2023-06-01T02:01:32Z,42.805,6.029,13.3044,4.60132,2470.763,2023-6-01T04:03:44Z
2023-06-01T02:04:35Z,42.805,6.029,13.3043,4.60122,2470.717,2023-6-01T04:06:47Z
2023-06-01T02:07:38Z,42.805,6.029,13.3046,4.60130,2470.73,2023-6-01T04:09:50Z
2023-06-01T02:10:41Z,42.805,6.029,13.3048,4.60141,2470.754,2023-6-01T04:12:53Z
2023-06-01T02:13:44Z,42.805,6.029,13.3038,4.60123,2470.693,2023-6-01T04:15:57Z
2023-06-01T02:16:47Z,42.805,6.029,13.3029,4.60135,2470.717,2023-6-01T04:19:00Z
2023-06-01T02:19:50Z,42.805,6.029,13.3036,4.60135,2470.777,2023-6-01T04:22:03Z
2023-06-01T02:22:53Z,42.805,6.029,13.3065,4.60148,2470.717,2023-6-01T04:25:06Z
2023-06-01T02:25:56Z,42.805,6.029,13.3040,4.60146,2470.777,2023-6-01T04:28:09Z
2023-06-01T02:28:59Z,42.805,6.029,13.3054,4.60144,2470.754,2023-6-01T04:31:12Z
2023-06-01T02:32:02Z,42.805,6.029,13.3051,4.60179,2470.74,2023-6-01T04:34:15Z
2023-06-01T02:35:06Z,42.805,6.029,13.3031,4.60135,2470.777,2023-6-01T04:37:18Z
2023-06-01T02:38:09Z,42.805,6.029,13.3035,4.60148,2470.717,2023-6-01T04:40:21Z
2023-06-01T02:41:12Z,42.805,6.029,13.3026,4.60149,2470.74,2023-6-01T04:43:24Z
2023-06-01T02:44:15Z,42.805,6.029,13.3039,4.60143,2470.693,2023-6-01T04:46:27Z
2023-06-01T02:47:18Z,42.805,6.029,13.3035,4.60150,2470.74,2023-6-01T04:49:30Z
2023-06-01T02:50:21Z,42.805,6.029,13.3050,4.60151,2470.754,2023-6-01T04:52:34Z
2023-06-01T02:53:24Z,42.805,6.029,13.3031,4.60129,2470.763,2023-6-01T04:55:37Z
2023-06-01T02:56:27Z,42.805,6.029,13.3032,4.60120,2470.74,2023-6-01T04:58:40Z
2023-06-01T02:59:30Z,42.805,6.029,13.3033,4.60111,2470.717,2023-6-01T05:01:43Z
2023-06-01T03:02:33Z,42.805,6.029,13.3031,4.60114,2470.754,2023-6-01T05:04:46Z
2023-06-01T03:05:36Z,42.805,6.029,13.3036,4.60155,2470.777,2023-6-01T05:07:49Z
2023-06-01T03:08:39Z,42.805,6.029,13.3038,4.60144,2470.74,2023-6-01T05:10:52Z
2023-06-01T03:11:43Z,42.805,6.029,13.3034,4.60173,2470.763,2023-6-01T05:13:55Z
2023-06-01T03:14:46Z,42.805,6.029,13.3045,4.60148,2470.787,2023-6-01T05:16:58Z
2023-06-01T03:17:49Z,42.805,6.029,13.3036,4.60134,2470.763,2023-6-01T05:20:01Z
2023-06-01T03:20:52Z,42.805,6.029,13.3044,4.60165,2470.74,2023-6-01T05:23:04Z
2023-06-01T03:23:55Z,42.805,6.029,13.3056,4.60157,2470.8,2023-6-01T05:26:07Z
2023-06-01T03:26:58Z,42.805,6.029,13.3048,4.60143,2470.74,2023-6-01T05:29:10Z
2023-06-01T03:30:01Z,42.805,6.029,13.3058,4.60156,2470.777,2023-6-01T05:32:14Z
2023-06-01T03:33:04Z,42.805,6.029,13.3056,4.60158,2470.777,2023-6-01T05:35:17Z
2023-06-01T03:36:07Z,42.805,6.029,13.3044,4.60190,2470.763,2023-6-01T05:38:20Z
2023-06-01T03:39:10Z,42.805,6.029,13.3063,4.60175,2470.777,2023-6-01T05:41:23Z
2023-06-01T03:42:13Z,42.805,6.029,13.3047,4.60168,2470.777,2023-6-01T05:44:26Z
2023-06-01T03:45:16Z,42.805,6.029,13.3054,4.60166,2470.763,2023-6-01T05:47:29Z
2023-06-01T03:48:19Z,42.805,6.029,13.3056,4.60138,2470.763,2023-6-01T05:50:32Z
2023-06-01T03:51:23Z,42.805,6.029,13.3037,4.60158,2470.763,2023-6-01T05:53:35Z
2023-06-01T03:54:26Z,42.805,6.029,13.3044,4.60160,2470.74,2023-6-01T05:56:38Z
2023-06-01T03:57:29Z,42.805,6.029,13.3054,4.60155,2470.773,2023-6-01T05:59:41Z
2023-06-01T04:00:32Z,42.805,6.029,13.3038,4.60143,2470.777,2023-6-01T06:02:44Z
2023-06-01T04:03:35Z,42.805,6.029,13.3051,4.60167,2470.777,2023-6-01T06:05:47Z
2023-06-01T04:06:38Z,42.805,6.029,13.3051,4.60162,2470.74,2023-6-01T06:08:50Z
2023-06-01T04:09:41Z,42.805,6.029,13.3039,4.60160,2470.787,2023-6-01T06:11:54Z
2023-06-01T04:12:44Z,42.805,6.029,13.3032,4.60144,2470.824,2023-6-01T06:14:57Z
2023-06-01T04:15:47Z,42.805,6.029,13.3041,4.60108,2470.824,2023-6-01T06:18:00Z
2023-06-01T04:18:50Z,42.805,6.029,13.3035,4.60103,2470.8,2023-6-01T06:21:03Z
2023-06-01T04:21:53Z,42.805,6.029,13.3036,4.60165,2470.81,2023-6-01T06:24:06Z
2023-06-01T04:24:56Z,42.805,6.029,13.3044,4.60140,2470.75,2023-6-01T06:27:09Z
2023-06-01T04:27:59Z,42.805,6.029,13.3032,4.60140,2470.787,2023-6-01T06:30:12Z
2023-06-01T04:31:03Z,42.805,6.029,13.3034,4.60155,2470.777,2023-6-01T06:33:15Z
2023-06-01T04:34:06Z,42.805,6.029,13.3042,4.60109,2470.8,2023-6-01T06:36:18Z
2023-06-01T04:37:09Z,42.805,6.029,13.3048,4.60100,2470.81,2023-6-01T06:39:21Z
2023-06-01T04:40:12Z,42.805,6.029,13.3031,4.60125,2470.81,2023-6-01T06:42:24Z
2023-06-01T04:43:15Z,42.805,6.029,13.3041,4.60123,2470.81,2023-6-01T06:45:27Z
2023-06-01T04:46:18Z,42.805,6.029,13.3046,4.60142,2470.763,2023-6-01T06:48:31Z
2023-06-01T04:49:21Z,42.805,6.029,13.3033,4.60147,2470.824,2023-6-01T06:51:34Z
2023-06-01T04:52:24Z,42.805,6.029,13.3036,4.60142,2470.824,2023-6-01T06:54:37Z
2023-06-01T04:55:27Z,42.805,6.029,13.3050,4.60167,2470.787,2023-6-01T06:57:40Z
2023-06-01T04:58:30Z,42.805,6.029,13.3046,4.60140,2470.8,2023-6-01T07:00:43Z
2023-06-01T05:01:33Z,42.805,6.029,13.3036,4.60143,2470.8,2023-6-01T07:03:46Z
2023-06-01T05:04:36Z,42.805,6.029,13.3050,4.60133,2470.787,2023-6-01T07:06:49Z
2023-06-01T05:07:39Z,42.805,6.029,13.3049,4.60119,2470.81,2023-6-01T07:09:52Z
2023-06-01T05:10:43Z,42.805,6.029,13.3074,4.60161,2470.8,2023-6-01T07:12:55Z
2023-06-01T05:13:46Z,42.805,6.029,13.3048,4.60188,2470.824,2023-6-01T07:15:58Z
2023-06-01T05:16:49Z,42.805,6.029,13.3070,4.60170,2470.8,2023-6-01T07:19:01Z
2023-06-01T05:19:52Z,42.805,6.029,13.3043,4.60157,2470.787,2023-6-01T07:22:04Z
2023-06-01T05:22:55Z,42.805,6.029,13.3039,4.60140,2470.8,2023-6-01T07:25:07Z
2023-06-01T05:25:58Z,42.805,6.029,13.3032,4.60127,2470.8,2023-6-01T07:28:11Z
2023-06-01T05:29:01Z,42.805,6.029,13.3032,4.60176,2470.81,2023-6-01T07:31:14Z
2023-06-01T05:32:04Z,42.805,6.029,13.3045,4.60193,2470.787,2023-6-01T07:34:17Z
2023-06-01T05:35:07Z,42.805,6.029,13.3031,4.60146,2470.8,2023-6-01T07:37:20Z
2023-06-01T05:38:10Z,42.805,6.029,13.3040,4.60148,2470.81,2023-6-01T07:40:23Z
2023-06-01T05:41:13Z,42.805,6.029,13.3037,4.60148,2470.81,2023-6-01T07:43:26Z
2023-06-01T05:44:16Z,42.805,6.029,13.3036,4.60157,2470.787,2023-6-01T07:46:29Z
2023-06-01T05:47:20Z,42.805,6.029,13.3044,4.60127,2470.81,2023-6-01T07:49:32Z
2023-06-01T05:50:23Z,42.805,6.029,13.3044,4.60110,2470.8,2023-6-01T07:52:35Z
2023-06-01T05:53:26Z,42.805,6.029,13.3046,4.60101,2470.81,2023-6-01T07:55:38Z
2023-06-01T05:56:29Z,42.805,6.029,13.3032,4.60127,2470.8,2023-6-01T07:58:41Z
2023-06-01T05:59:32Z,42.805,6.029,13.3046,4.60140,2470.763,2023-6-01T08:01:44Z
2023-06-01T06:02:35Z,42.805,6.029,13.3036,4.60183,2470.763,2023-6-01T08:04:47Z
2023-06-01T06:05:38Z,42.805,6.029,13.3031,4.60162,2470.8,2023-6-01T08:07:51Z
2023-06-01T06:08:41Z,42.805,6.029,13.3059,4.60135,2470.777,2023-6-01T08:10:54Z
2023-06-01T06:11:44Z,42.805,6.029,13.3048,4.60117,2470.824,2023-6-01T08:13:57Z
2023-06-01T06:14:47Z,42.805,6.029,13.3047,4.60120,2470.787,2023-6-01T08:17:00Z
2023-06-01T06:17:50Z,42.805,6.029,13.3054,4.60112,2470.8,2023-6-01T08:20:03Z
2023-06-01T06:20:53Z,42.805,6.029,13.3052,4.60119,2470.8,2023-6-01T08:23:06Z
2023-06-01T06:23:56Z,42.805,6.029,13.3046,4.60129,2470.777,2023-6-01T08:26:09Z
2023-06-01T06:27:00Z,42.805,6.029,13.3048,4.60192,2470.787,2023-6-01T08:29:12Z
2023-06-01T06:30:03Z,42.805,6.029,13.3058,4.60137,2470.763,2023-6-01T08:32:15Z
2023-06-01T06:33:06Z,42.805,6.029,13.3076,4.60122,2470.787,2023-6-01T08:35:18Z
2023-06-01T06:36:09Z,42.805,6.029,13.3065,4.60125,2470.777,2023-6-01T08:38:21Z
2023-06-01T06:39:12Z,42.805,6.029,13.3067,4.60107,2470.763,2023-6-01T08:41:24Z
2023-06-01T06:42:15Z,42.805,6.029,13.3042,4.60119,2470.777,2023-6-01T08:44:28Z
2023-06-01T06:45:18Z,42.805,6.029,13.3073,4.60125,2470.763,2023-6-01T08:47:31Z
2023-06-01T06:48:21Z,42.805,6.029,13.3068,4.60160,2470.777,2023-6-01T08:50:34Z
2023-06-01T06:51:24Z,42.805,6.029,13.3078,4.60160,2470.754,2023-6-01T08:53:37Z
2023-06-01T06:54:27Z,42.805,6.029,13.3056,4.60141,2470.74,2023-6-01T08:56:40Z
2023-06-01T06:57:30Z,42.805,6.029,13.3047,4.60143,2470.763,2023-6-01T08:59:43Z
2023-06-01T07:00:33Z,42.805,6.029,13.3039,4.60129,2470.777,2023-6-01T09:02:46Z
2023-06-01T07:03:37Z,42.805,6.029,13.3053,4.60141,2470.777,2023-6-01T09:05:49Z
2023-06-01T07:06:40Z,42.805,6.029,13.3076,4.60124,2470.74,2023-6-01T09:08:52Z
2023-06-01T07:09:43Z,42.805,6.029,13.3042,4.60133,2470.787,2023-6-01T09:11:55Z
2023-06-01T07:12:46Z,42.805,6.029,13.3058,4.60155,2470.777,2023-6-01T09:14:58Z
2023-06-01T07:15:49Z,42.805,6.029,13.3055,4.60221,2470.74,2023-6-01T09:18:01Z
2023-06-01T07:18:52Z,42.805,6.029,13.3056,4.60155,2470.73,2023-6-01T09:21:05Z
2023-06-01T07:21:55Z,42.805,6.029,13.3047,4.60157,2470.754,2023-6-01T09:24:08Z
2023-06-01T07:24:58Z,42.805,6.029,13.3051,4.60125,2470.763,2023-6-01T09:27:11Z
2023-06-01T07:28:01Z,42.805,6.029,13.3061,4.60144,2470.763,2023-6-01T09:30:14Z
2023-06-01T07:31:04Z,42.805,6.029,13.3061,4.60153,2470.74,2023-6-01T09:33:17Z
2023-06-01T07:34:07Z,42.805,6.029,13.3063,4.60138,2470.763,2023-6-01T09:36:20Z
2023-06-01T07:37:10Z,42.805,6.029,13.3084,4.60138,2470.74,2023-6-01T09:39:23Z
2023-06-01T07:40:13Z,42.805,6.029,13.3061,4.60148,2470.717,2023-6-01T09:42:26Z
2023-06-01T07:43:17Z,42.805,6.029,13.3053,4.60134,2470.754,2023-6-01T09:45:29Z
2023-06-01T07:46:20Z,42.805,6.029,13.3089,4.60132,2470.73,2023-6-01T09:48:32Z
2023-06-01T07:49:23Z,42.805,6.029,13.3046,4.60110,2470.717,2023-6-01T09:51:35Z
2023-06-01T07:52:26Z,42.805,6.029,13.3060,4.60112,2470.717,2023-6-01T09:54:38Z
2023-06-01T07:55:29Z,42.805,6.029,13.3054,4.60137,2470.707,2023-6-01T09:57:41Z
2023-06-01T07:58:32Z,42.805,6.029,13.3051,4.60169,2470.717,2023-6-01T10:00:45Z
2023-06-01T08:01:35Z,42.805,6.029,13.3085,4.60167,2470.73,2023-6-01T10:03:48Z
2023-06-01T08:04:38Z,42.805,6.029,13.3060,4.60152,2470.754,2023-6-01T10:06:51Z
2023-06-01T08:07:41Z,42.805,6.029,13.3061,4.60155,2470.707,2023-6-01T10:09:54Z
2023-06-01T08:10:44Z,42.805,6.029,13.3061,4.60188,2470.754,2023-6-01T10:12:57Z
2023-06-01T08:13:47Z,42.805,6.029,13.3061,4.60172,2470.693,2023-6-01T10:16:00Z
2023-06-01T08:16:50Z,42.805,6.029,13.3056,4.60185,2470.73,2023-6-01T10:19:03Z
2023-06-01T08:19:54Z,42.805,6.029,13.3094,4.60135,2470.693,2023-6-01T10:22:06Z
2023-06-01T08:22:57Z,42.805,6.029,13.3058,4.60117,2470.67,2023-6-01T10:25:09Z
2023-06-01T08:26:00Z,42.805,6.029,13.3049,4.60138,2470.693,2023-6-01T10:28:12Z
2023-06-01T08:29:03Z,42.805,6.029,13.3066,4.60172,2470.693,2023-6-01T10:31:15Z
2023-06-01T08:32:06Z,42.805,6.029,13.3063,4.60129,2470.67,2023-6-01T10:34:18Z
2023-06-01T08:35:09Z,42.805,6.029,13.3049,4.60146,2470.67,2023-6-01T10:37:21Z
2023-06-01T08:38:12Z,42.805,6.029,13.3057,4.60127,2470.693,2023-6-01T10:40:25Z
2023-06-01T08:41:15Z,42.805,6.029,13.3069,4.60160,2470.684,2023-6-01T10:43:28Z
2023-06-01T08:44:18Z,42.805,6.029,13.3046,4.60143,2470.73,2023-6-01T10:46:31Z
2023-06-01T08:47:21Z,42.805,6.029,13.3063,4.60135,2470.707,2023-6-01T10:49:34Z
2023-06-01T08:50:24Z,42.805,6.029,13.3080,4.60145,2470.684,2023-6-01T10:52:37Z
2023-06-01T08:53:27Z,42.805,6.029,13.3058,4.60129,2470.67,2023-6-01T10:55:40Z
2023-06-01T08:56:31Z,42.805,6.029,13.3046,4.60144,2470.693,2023-6-01T10:58:43Z
2023-06-01T08:59:34Z,42.805,6.029,13.3050,4.60144,2470.693,2023-6-01T11:01:46Z
2023-06-01T09:02:37Z,42.805,6.029,13.3051,4.60155,2470.67,2023-6-01T11:04:49Z
2023-06-01T09:05:40Z,42.805,6.029,13.3065,4.60135,2470.684,2023-6-01T11:07:52Z
2023-06-01T09:08:43Z,42.805,6.029,13.3058,4.60142,2470.661,2023-6-01T11:10:55Z
2023-06-01T09:11:46Z,42.805,6.029,13.3049,4.60157,2470.67,2023-6-01T11:13:59Z
2023-06-01T09:14:49Z,42.805,6.029,13.3058,4.60167,2470.661,2023-6-01T11:17:02Z
2023-06-01T09:17:52Z,42.805,6.029,13.3043,4.60160,2470.684,2023-6-01T11:20:05Z
2023-06-01T09:20:55Z,42.805,6.029,13.3062,4.60140,2470.684,2023-6-01T11:23:08Z
2023-06-01T09:23:58Z,42.805,6.029,13.3061,4.60145,2470.67,2023-6-01T11:26:11Z
2023-06-01T09:27:01Z,42.805,6.029,13.3054,4.60170,2470.67,2023-6-01T11:29:14Z
2023-06-01T09:30:04Z,42.805,6.029,13.3060,4.60196,2470.67,2023-6-01T11:32:17Z
2023-06-01T09:33:08Z,42.805,6.029,13.3067,4.60205,2470.646,2023-6-01T11:35:20Z
2023-06-01T09:36:11Z,42.805,6.029,13.3064,4.60137,2470.624,2023-6-01T11:38:23Z
2023-06-01T09:39:14Z,42.805,6.029,13.3061,4.60182,2470.646,2023-6-01T11:41:26Z
2023-06-01T09:42:17Z,42.805,6.029,13.3038,4.60179,2470.661,2023-6-01T11:44:29Z
2023-06-01T09:45:20Z,42.805,6.029,13.3048,4.60112,2470.624,2023-6-01T11:47:32Z
2023-06-01T09:48:23Z,42.805,6.029,13.3058,4.60119,2470.624,2023-6-01T11:50:35Z
2023-06-01T09:51:26Z,42.805,6.029,13.3057,4.60112,2470.646,2023-6-01T11:53:39Z
2023-06-01T09:54:29Z,42.805,6.029,13.3048,4.60165,2470.624,2023-6-01T11:56:42Z
2023-06-01T09:57:32Z,42.805,6.029,13.3049,4.60149,2470.646,2023-6-01T11:59:45Z
2023-06-01T10:00:35Z,42.805,6.029,13.3039,4.60192,2470.646,2023-6-01T12:02:48Z
2023-06-01T10:03:38Z,42.805,6.029,13.3048,4.60135,2470.6,2023-6-01T12:05:51Z
2023-06-01T10:06:41Z,42.805,6.029,13.3039,4.60162,2470.637,2023-6-01T12:08:54Z
2023-06-01T10:09:45Z,42.805,6.029,13.3046,4.60144,2470.624,2023-6-01T12:11:57Z
2023-06-01T10:12:48Z,42.805,6.029,13.3055,4.60127,2470.624,2023-6-01T12:15:00Z
2023-06-01T10:15:51Z,42.805,6.029,13.3061,4.60149,2470.646,2023-6-01T12:18:03Z
2023-06-01T10:18:54Z,42.805,6.029,13.3060,4.60151,2470.6,2023-6-01T12:21:06Z
2023-06-01T10:21:57Z,42.805,6.029,13.3056,4.60164,2470.624,2023-6-01T12:24:09Z
2023-06-01T10:25:00Z,42.805,6.029,13.3043,4.60174,2470.624,2023-6-01T12:27:12Z
2023-06-01T10:28:03Z,42.805,6.029,13.3047,4.60152,2470.624,2023-6-01T12:30:16Z
2023-06-01T10:31:06Z,42.805,6.029,13.3058,4.60135,2470.6,2023-6-01T12:33:19Z
2023-06-01T10:34:09Z,42.805,6.029,13.3043,4.60120,2470.624,2023-6-01T12:36:22Z
2023-06-01T10:37:12Z,42.805,6.029,13.3058,4.60129,2470.637,2023-6-01T12:39:25Z
2023-06-01T10:40:15Z,42.805,6.029,13.3046,4.60128,2470.624,2023-6-01T12:42:28Z
2023-06-01T10:43:18Z,42.805,6.029,13.3050,4.60140,2470.6,2023-6-01T12:45:31Z
2023-06-01T10:46:22Z,42.805,6.029,13.3054,4.60134,2470.6,2023-6-01T12:48:34Z
2023-06-01T10:49:25Z,42.805,6.029,13.3064,4.60144,2470.6,2023-6-01T12:51:37Z
2023-06-01T10:52:28Z,42.805,6.029,13.3060,4.60172,2470.614,2023-6-01T12:54:40Z
2023-06-01T10:55:31Z,42.805,6.029,13.3051,4.60125,2470.6,2023-6-01T12:57:43Z
2023-06-01T10:58:34Z,42.805,6.029,13.3051,4.60129,2470.624,2023-6-01T13:00:46Z
2023-06-01T11:01:37Z,42.805,6.029,13.3062,4.60166,2470.624,2023-6-01T13:03:49Z
2023-06-01T11:04:40Z,42.805,6.029,13.3051,4.60132,2470.624,2023-6-01T13:06:53Z
2023-06-01T11:07:43Z,42.805,6.029,13.3061,4.60129,2470.624,2023-6-01T13:09:56Z
2023-06-01T11:10:46Z,42.805,6.029,13.3075,4.60155,2470.614,2023-6-01T13:12:59Z
2023-06-01T11:13:49Z,42.805,6.029,13.3071,4.60170,2470.6,2023-6-01T13:16:02Z
2023-06-01T11:16:52Z,42.805,6.029,13.3067,4.60160,2470.614,2023-6-01T13:19:05Z
2023-06-01T11:19:55Z,42.805,6.029,13.3048,4.60202,2470.624,2023-6-01T13:22:08Z
2023-06-01T11:22:59Z,42.805,6.029,13.3054,4.60163,2470.637,2023-6-01T13:25:11Z
2023-06-01T11:26:02Z,42.805,6.029,13.3044,4.60154,2470.591,2023-6-01T13:28:14Z
2023-06-01T11:29:05Z,42.805,6.029,13.3049,4.60166,2470.6,2023-6-01T13:31:17Z
2023-06-01T11:32:08Z,42.805,6.029,13.3060,4.60160,2470.614,2023-6-01T13:34:20Z
2023-06-01T11:35:11Z,42.805,6.029,13.3054,4.60175,2470.577,2023-6-01T13:37:23Z
2023-06-01T11:38:14Z,42.805,6.029,13.3048,4.60185,2470.614,2023-6-01T13:40:27Z
2023-06-01T11:41:17Z,42.805,6.029,13.3055,4.60155,2470.591,2023-6-01T13:43:30Z
2023-06-01T11:44:20Z,42.805,6.029,13.3079,4.60128,2470.577,2023-6-01T13:46:33Z
2023-06-01T11:47:23Z,42.805,6.029,13.3043,4.60183,2470.6,2023-6-01T13:49:36Z
2023-06-01T11:50:26Z,42.805,6.029,13.3055,4.60184,2470.646,2023-6-01T13:52:39Z
2023-06-01T11:53:29Z,42.805,6.029,13.3059,4.60165,2470.6,2023-6-01T13:55:42Z
2023-06-01T11:56:32Z,42.805,6.029,13.3085,4.60135,2470.614,2023-6-01T13:58:45Z
2023-06-01T11:59:36Z,42.805,6.029,13.3048,4.60175,2470.577,2023-6-01T14:01:48Z
2023-06-01T12:02:39Z,42.805,6.029,13.3068,4.60145,2470.614,2023-6-01T14:04:51Z
2023-06-01T12:05:42Z,42.805,6.029,13.3051,4.60108,2470.6,2023-6-01T14:07:54Z
2023-06-01T12:08:45Z,42.805,6.029,13.3056,4.60158,2470.637,2023-6-01T14:10:57Z
2023-06-01T12:11:48Z,42.805,6.029,13.3063,4.60153,2470.6,2023-6-01T14:14:00Z
2023-06-01T12:14:51Z,42.805,6.029,13.3063,4.60163,2470.624,2023-6-01T14:17:04Z
2023-06-01T12:17:54Z,42.805,6.029,13.3058,4.60186,2470.624,2023-6-01T14:20:07Z
2023-06-01T12:20:57Z,42.805,6.029,13.3053,4.60160,2470.614,2023-6-01T14:23:10Z
2023-06-01T12:24:00Z,42.805,6.029,13.3051,4.60161,2470.614,2023-6-01T14:26:13Z
2023-06-01T12:27:03Z,42.805,6.029,13.3042,4.60133,2470.6,2023-6-01T14:29:16Z
2023-06-01T12:30:06Z,42.805,6.029,13.3051,4.60144,2470.637,2023-6-01T14:32:19Z
2023-06-01T12:33:09Z,42.805,6.029,13.3048,4.60166,2470.6,2023-6-01T14:35:22Z
2023-06-01T12:36:13Z,42.805,6.029,13.3041,4.60170,2470.6,2023-6-01T14:38:25Z
2023-06-01T12:39:16Z,42.805,6.029,13.3038,4.60193,2470.614,2023-6-01T14:41:28Z
2023-06-01T12:42:19Z,42.805,6.029,13.3051,4.60159,2470.614,2023-6-01T14:44:31Z
2023-06-01T12:45:22Z,42.805,6.029,13.3045,4.60167,2470.614,2023-6-01T14:47:34Z
2023-06-01T12:48:25Z,42.805,6.029,13.3041,4.60178,2470.6,2023-6-01T14:50:37Z
2023-06-01T12:51:28Z,42.805,6.029,13.3043,4.60180,2470.6,2023-6-01T14:53:41Z
2023-06-01T12:54:31Z,42.805,6.029,13.3048,4.60155,2470.6,2023-6-01T14:56:44Z
2023-06-01T12:57:34Z,42.805,6.029,13.3038,4.60178,2470.6,2023-6-01T14:59:47Z
2023-06-01T13:00:37Z,42.805,6.029,13.3046,4.60178,2470.6,2023-6-01T15:02:50Z
2023-06-01T13:03:40Z,42.805,6.029,13.3058,4.60158,2470.624,2023-6-01T15:05:53Z
2023-06-01T13:06:43Z,42.805,6.029,13.3046,4.60160,2470.6,2023-6-01T15:08:56Z
2023-06-01T13:09:46Z,42.805,6.029,13.3052,4.60160,2470.591,2023-6-01T15:11:59Z
2023-06-01T13:12:50Z,42.805,6.029,13.3040,4.60150,2470.6,2023-6-01T15:15:02Z
2023-06-01T13:15:53Z,42.805,6.029,13.3055,4.60172,2470.624,2023-6-01T15:18:05Z
2023-06-01T13:18:56Z,42.805,6.029,13.3053,4.60170,2470.661,2023-6-01T15:21:09Z
2023-06-01T13:21:59Z,42.805,6.029,13.3035,4.60164,2470.661,2023-6-01T15:24:12Z
2023-06-01T13:25:02Z,42.805,6.029,13.3053,4.60137,2470.637,2023-6-01T15:27:15Z
2023-06-01T13:28:05Z,42.805,6.029,13.3056,4.60157,2470.661,2023-6-01T15:30:18Z
2023-06-01T13:31:08Z,42.805,6.029,13.3045,4.60172,2470.684,2023-6-01T15:33:21Z
2023-06-01T13:34:11Z,42.805,6.029,13.3054,4.60140,2470.624,2023-6-01T15:36:24Z
2023-06-01T13:37:14Z,42.805,6.029,13.3043,4.60170,2470.661,2023-6-01T15:39:27Z
2023-06-01T13:40:17Z,42.805,6.029,13.3035,4.60173,2470.661,2023-6-01T15:42:30Z
2023-06-01T13:43:20Z,42.805,6.029,13.3061,4.60146,2470.624,2023-6-01T15:45:33Z
2023-06-01T13:46:23Z,42.805,6.029,13.3047,4.60161,2470.661,2023-6-01T15:48:36Z
2023-06-01T13:49:27Z,42.805,6.029,13.3043,4.60166,2470.661,2023-6-01T15:51:40Z
2023-06-01T13:52:30Z,42.805,6.029,13.3040,4.60162,2470.684,2023-6-01T15:54:43Z
2023-06-01T13:55:33Z,42.805,6.029,13.3054,4.60175,2470.646,2023-6-01T15:57:46Z
2023-06-01T13:58:36Z,42.805,6.029,13.3046,4.60143,2470.661,2023-6-01T16:00:49Z
2023-06-01T14:01:39Z,42.805,6.029,13.3053,4.60164,2470.67,2023-6-01T16:03:52Z
2023-06-01T14:04:42Z,42.805,6.029,13.3045,4.60193,2470.661,2023-6-01T16:06:55Z
2023-06-01T14:07:45Z,42.805,6.029,13.3053,4.60117,2470.646,2023-6-01T16:09:58Z
2023-06-01T14:10:48Z,42.805,6.029,13.3047,4.60153,2470.646,2023-6-01T16:13:01Z
2023-06-01T14:13:51Z,42.805,6.029,13.3046,4.60150,2470.646,2023-6-01T16:16:04Z
2023-06-01T14:16:54Z,42.805,6.029,13.3043,4.60161,2470.684,2023-6-01T16:19:07Z
2023-06-01T14:19:57Z,42.805,6.029,13.3043,4.60160,2470.646,2023-6-01T16:22:10Z
2023-06-01T14:23:00Z,42.805,6.029,13.3039,4.60143,2470.707,2023-6-01T16:25:13Z
2023-06-01T14:26:04Z,42.805,6.029,13.3042,4.60171,2470.684,2023-6-01T16:28:17Z
2023-06-01T14:29:07Z,42.805,6.029,13.3039,4.60130,2470.661,2023-6-01T16:31:20Z
2023-06-01T14:32:10Z,42.805,6.029,13.3031,4.60122,2470.684,2023-6-01T16:34:23Z
2023-06-01T14:35:14Z,42.805,6.029,13.3034,4.60146,2470.707,2023-6-01T16:37:26Z
2023-06-01T14:38:17Z,42.805,6.029,13.3042,4.60125,2470.707,2023-6-01T16:40:30Z
2023-06-01T14:41:20Z,42.805,6.029,13.3032,4.60143,2470.693,2023-6-01T16:43:33Z
2023-06-01T14:44:23Z,42.805,6.029,13.3039,4.60139,2470.684,2023-6-01T16:46:36Z
2023-06-01T14:47:26Z,42.805,6.029,13.3036,4.60141,2470.707,2023-6-01T16:49:39Z
2023-06-01T14:50:29Z,42.805,6.029,13.3029,4.60131,2470.67,2023-6-01T16:52:42Z
2023-06-01T14:53:32Z,42.805,6.029,13.3044,4.60140,2470.717,2023-6-01T16:55:45Z
2023-06-01T14:56:35Z,42.805,6.029,13.3038,4.60133,2470.693,2023-6-01T16:58:48Z
2023-06-01T14:59:38Z,42.805,6.029,13.3040,4.60142,2470.73,2023-6-01T17:01:51Z
2023-06-01T15:02:41Z,42.805,6.029,13.3046,4.60137,2470.74,2023-6-01T17:04:54Z
2023-06-01T15:05:44Z,42.805,6.029,13.3036,4.60159,2470.707,2023-6-01T17:07:57Z
2023-06-01T15:08:47Z,42.805,6.029,13.3047,4.60162,2470.693,2023-6-01T17:11:00Z
2023-06-01T15:11:50Z,42.805,6.029,13.3042,4.60141,2470.754,2023-6-01T17:14:03Z
2023-06-01T15:14:54Z,42.805,6.029,13.3035,4.60155,2470.67,2023-6-01T17:17:07Z